Location: Newark
(12.4436°N, 0.6167°W)
Time: 21:02:09
(UTC+00:00)

SR - All Passes

Search period start: 13 December 2019 00:00
Search period end: 23 December 2019 00:00
Orbit: 573 x 882 km, 66.7° (Epoch: 12 December)

Date Brightness Start Highest point End Pass type
(mag) Time Alt. Az. Time Alt. Az. Time Alt. Az.
13 Dec - 07:24:20 10° S 07:29:13 58° ESE 07:34:34 10° NNE daylight
13 Dec - 18:03:30 10° N 18:08:03 26° ENE 18:12:20 10° ESE visible
13 Dec - 19:45:53 10° WNW 19:49:50 21° WSW 19:53:34 10° SSW visible
14 Dec - 06:35:56 10° SSE 06:39:48 22° ESE 06:43:55 10° NE daylight
14 Dec - 08:17:27 10° WSW 08:21:37 25° WNW 08:26:03 10° N daylight
14 Dec - 17:16:55 10° NE 17:18:08 11° ENE 17:19:20 10° ENE daylight
14 Dec - 18:55:08 10° NNW 19:00:26 53° WSW 19:05:17 10° S visible
15 Dec - 07:26:53 10° SSW 07:31:51 61° WNW 07:37:18 10° NNE daylight
15 Dec - 18:05:27 10° NNW 18:10:51 60° ENE 18:15:48 10° SSE visible
16 Dec - 06:37:24 10° S 06:42:17 53° ESE 06:47:36 10° NNE daylight
16 Dec - 08:23:10 10° WNW 08:24:34 11° WNW 08:25:59 10° NW daylight
16 Dec - 17:16:42 10° NNE 17:21:06 24° ENE 17:25:12 10° ESE daylight
16 Dec - 18:58:48 10° NW 19:02:55 23° WSW 19:06:47 10° SSW visible
17 Dec - 05:49:08 10° SSE 05:52:53 21° ESE 05:56:50 10° ENE visible
17 Dec - 07:30:20 10° WSW 07:34:39 27° WNW 07:39:17 10° N daylight
17 Dec - 18:08:10 10° NNW 18:13:30 58° WSW 18:18:22 10° S visible
18 Dec - 06:39:52 10° SSW 06:44:54 66° WNW 06:50:25 10° NNE daylight
18 Dec - 17:18:34 10° N 17:23:54 55° ENE 17:28:47 10° SE daylight
19 Dec - 05:50:30 10° S 05:55:21 49° ESE 06:00:39 10° NE visible
19 Dec - 07:35:33 10° W 07:37:35 12° WNW 07:39:41 10° NW daylight
19 Dec - 16:29:56 10° NNE 16:34:08 22° ENE 16:38:03 10° ESE daylight
19 Dec - 18:11:45 10° NW 18:16:00 24° WSW 18:19:58 10° SSW visible
20 Dec - 05:02:22 10° SSE 05:05:57 19° ESE 05:09:44 10° ENE visible
20 Dec - 06:43:14 10° SW 06:47:41 29° WNW 06:52:28 10° N daylight
20 Dec - 17:21:13 10° NNW 17:26:33 63° WSW 17:31:25 10° S daylight
21 Dec - 05:52:53 10° SSW 05:57:58 72° WNW 06:03:31 10° NNE visible
21 Dec - 16:31:42 10° N 16:36:57 50° ENE 16:41:45 10° SE daylight
22 Dec - 05:03:35 10° S 05:08:26 45° ESE 05:13:40 10° NE visible
22 Dec - 06:48:06 10° W 06:50:37 13° WNW 06:53:13 10° NW daylight
22 Dec - 15:43:12 10° NNE 15:47:09 21° ENE 15:50:53 10° ESE daylight
22 Dec - 17:24:41 10° NW 17:29:04 26° WSW 17:33:08 10° SSW daylight
